Weather History for Liberia, Costa Rica

Change the Weather History Date:

Friday, October 7, 2011

  Actual Average Record
Temperature  
Mean Temperature 81 °F -  
Max Temperature 91 °F 84 °F 91 °F (2001)
Min Temperature 71 °F 73 °F 69 °F (2002)
Cooling Degree Days 16    
Growing Degree Days 31 (Base 50)    
Moisture  
Dew Point 75 °F    
Average Humidity 78    
Maximum Humidity 100    
Minimum Humidity 57    
Precipitation  
Precipitation 0.01 in - - ()
Sea Level Pressure  
Sea Level Pressure 29.78 in    
Wind  
Wind Speed 4 mph ()    
Max Wind Speed 9 mph    
Max Gust Speed -    
Visibility 7.7 miles    
Events Rain    
Averages and records for this station are not official NWS values.
T = Trace of Precipitation, MM = Missing Value Source: Averaged Metar Reports

Daily Weather History Graph

Daily Weather History Graph

Search for Another Location

Airport:

Trip Planner

Search our weather history database for the weather conditions in past years. The results will help you decide how hot, cold, wet, or windy it might be!

Date:

Astronomy

Oct. 07, 2011 Rise Set
Actual Time 5:30 AM CST 5:29 PM CST
Civil Twilight 5:09 AM CST 5:50 PM CST
Nautical Twilight 4:45 AM CST 6:14 PM CST
Astronomical Twilight 4:20 AM CST 6:39 PM CST
Moon 2:36 PM CST (10/7) 2:00 AM CST (10/7)
Length of Visible Light 12h 40m
Length of Day
11h 58m
Waxing Gibbous, 84% of the Moon is Illuminated
Oct 7
Waxing Gibbous
Oct 11
Full
Oct 19
Last Quarter
Oct 26
New
Nov 2
First Quarter

Hourly Weather History & Observations

Time (CST) Temp. Heat Index Dew Point Humidity Pressure Visibility Wind Dir Wind Speed Gust Speed Precip Events Conditions
6:00 AM 72 °F - 71 °F 96% 29.76 in 12 mi East 2.3 mph - -   Overcast
6:00 AM 71.6 °F - 71.6 °F 100% 29.81 in 6.2 mi East 2.3 mph - N/A   Mostly Cloudy
7:00 AM 78.8 °F - 75.2 °F 89% 29.82 in 6.2 mi SSW 2.3 mph - N/A   Mostly Cloudy
8:00 AM 82.4 °F 89.5 °F 75.2 °F 79% 29.85 in 6.2 mi Calm Calm - N/A   Scattered Clouds
9:00 AM 80 °F - 74 °F 77% 29.83 in 12 mi ENE 3.5 mph - -   Overcast
9:00 AM 80.6 °F 85.4 °F 73.4 °F 79% 29.84 in - ENE 3.5 mph - N/A   Clear
10:00 AM 84.2 °F 92.3 °F 75.2 °F 74% 29.84 in 6.2 mi SW 3.5 mph - N/A   Mostly Cloudy
11:00 AM - - - N/A% 29.82 in 6.2 mi SW 3.5 mph - N/A   Mostly Cloudy
12:00 PM 89 °F - 76 °F 57% 29.79 in 12 mi South 4.6 mph - -   Overcast
12:00 PM 89.6 °F 99.8 °F 75.2 °F 62% 29.80 in 6.2 mi South 4.6 mph - N/A   Scattered Clouds
1:00 PM 87.8 °F 95.6 °F 73.4 °F 62% 29.77 in 6.2 mi East 4.6 mph - N/A   Scattered Clouds
2:00 PM 87.8 °F 99.7 °F 77.0 °F 70% 29.75 in 6.2 mi West 9.2 mph - N/A Rain Light Rain
3:00 PM 83 °F - 75 °F 72% 29.73 in 12 mi West 6.9 mph - -   Partly Cloudy
3:00 PM 82.4 °F 89.5 °F 75.2 °F 79% 29.73 in 6.2 mi West 6.9 mph - N/A   Scattered Clouds
4:00 PM 86.0 °F 95.1 °F 75.2 °F 70% 29.73 in 6.2 mi West 9.2 mph - N/A Rain Light Rain
5:00 PM 86.0 °F 95.1 °F 75.2 °F 70% 29.75 in 6.2 mi NNW 4.6 mph - N/A   Mostly Cloudy
6:00 PM 81 °F - 74 °F 75% 29.73 in 12 mi North 5.8 mph - -   Overcast
6:00 PM 80.6 °F 86.2 °F 75.2 °F 84% 29.76 in 6.2 mi North 5.8 mph - N/A   Scattered Clouds
7:00 PM 78.8 °F - 75.2 °F 89% 29.78 in 6.2 mi North 4.6 mph - N/A   Mostly Cloudy
8:00 PM 77.0 °F - 73.4 °F 89% 29.80 in 6.2 mi South 8.1 mph - N/A Rain Light Rain